Home > Weather > Babylon > Past weeks

Flag for USA Past Weather in Babylon, New York, USA — Yesterday and Last 2 Weeks

Now
81 °F

Clear.


Feels Like: 82 °F
Forecast: 72 / 88 °F
Wind: 5 mph from Northwest

Location: Republic Airport

Current Time: Jul 26, 2016 at 11:59:48 PM

Latest Report: Jul 26, 2016 at 10:53 PM


Visibility: 10 mi

Pressure: 29.91 "Hg

Humidity: 53%

Dew Point: 62 °F

Location of BabylonLocation

Past Weather in Babylon — Graph

°F

Babylon Temperature Yesterday

Maximum temperature yesterday: 86 °F (at 2:53 PM)
Minimum temperature yesterday: 74 °F (at 8:53 PM)
Average temperature yesterday: 78 °F

High & Low Weather Summary for the Past Weeks

 TemperatureHumidityPressure
High96 °F (Jul 23, 3:53 PM)97% (Jul 12, 4:53 AM)30.24 "Hg (Jul 12, 4:53 AM)
Low64 °F (Jul 12, 4:53 AM)24% (Jul 23, 4:53 PM)29.77 "Hg (Jul 23, 5:53 PM)
Average79 °F67%29.99 "Hg
* Reported Jul 11 9:53 PM — Jul 26 9:53 PM, Babylon, Weather by CustomWeather, © 2016

Note: Actual official high and low records may vary slightly from our data, if they occured in-between our weather recording intervals... More about our weather records

Advertising

Babylon Weather History for the Previous 24 Hours

Scroll right to see more
 ConditionsComfort  
Time TempWeatherWind HumidityBarometerVisibility
9:53 PM
Tue, Jul 26
83 °FClear.8 mph50%29.90 "Hg10 mi
8:53 PM84 °FSunny.N/A48%29.89 "Hg10 mi
7:53 PM87 °FSunny.10 mph43%29.86 "Hg10 mi
6:53 PM89 °FSunny.12 mph39%29.85 "Hg10 mi
5:53 PM91 °FSunny.18 mph38%29.85 "Hg10 mi
4:53 PM91 °FSunny.N/A38%29.85 "Hg10 mi
3:53 PM92 °FPassing clouds.N/A37%29.85 "Hg10 mi
2:53 PM91 °FSunny.10 mph39%29.86 "Hg10 mi
1:53 PM91 °FSunny.10 mph38%29.87 "Hg10 mi
12:53 PM89 °FPassing clouds.13 mph43%29.88 "Hg10 mi
11:53 AM89 °FSunny.9 mph42%29.89 "Hg10 mi
10:53 AM85 °FSunny.9 mph51%29.90 "Hg10 mi
9:53 AM83 °FSunny.7 mph61%29.90 "Hg10 mi
8:53 AM80 °FSunny.6 mph71%29.90 "Hg10 mi
7:53 AM77 °FSunny.8 mph77%29.90 "Hg10 mi
6:53 AM74 °FSunny.7 mph85%29.89 "Hg10 mi
5:53 AM73 °FClear.5 mph88%29.87 "Hg10 mi
4:53 AM73 °FClear.6 mph88%29.86 "Hg10 mi
3:53 AM74 °FClear.10 mph88%29.85 "Hg10 mi
2:53 AM74 °FClear.8 mph88%29.85 "Hg10 mi
1:53 AM75 °FClear.7 mph90%29.85 "Hg10 mi
12:53 AM74 °FPassing clouds.12 mph94%29.85 "Hg10 mi
11:53 PM
Mon, Jul 25
74 °FPassing clouds.9 mph94%29.87 "Hg10 mi
Weather by CustomWeather, © 2016

See weather overviewHow to use our weather pages